sat.trackr.live / text

‹ back to catalog

STARLINK-36950

NORAD 67992 · 2026-039G

PAYLOAD ACTIVE UNKNOWN

§ Identity

Operator
Country
US
Launch date
2026-02-27
Launch site
AFETR
Launch vehicle
Mass (kg)
RCS (m²)

Purposes: comms

External: N2YO · Heavens-Above · Gunter

§ Orbital elements

Epoch: 2026-05-24T22:32:08.324736Z

Period
94.27 min
Inclination
43.0042°
Eccentricity
0.0001515
Mean motion
15.27589408 rev/d
Perigee alt
482.0 km
Apogee alt
484.1 km
Semi-major
6,861.2 km
B*
3.1808e-4
RAAN
338.4271°
Arg perigee
273.5106°
Mean anomaly
86.5572°
Rev number
1,336

§ Raw data

STARLINK-369501 67992U 26039G   26144.93898524  .00008503  00000+0  31808-3 0  99962 67992  43.0042 338.4271 0001515 273.5106  86.5572 15.27589408 13367

JSON: /api/v1/satellites/67992 · /tle

For live sub-satellite position, see the globe view (requires WebGL).

§ Visibility from observer

Set your observer location to see the next 7 days of passes ≥ 10°. The values pass through the URL so the page stays shareable.

No JS? Fill the form by hand. The geolocation button needs JavaScript.